Torna al catalogo

P 76-5 DEB

AttivoSSO
NORAD 59984·DEBRIS·🇺🇸 United States

Lanciato May 22, 1976 da Vandenberg Space Force Base

Loading…

Prossimi Passaggi (prossime 24 ore)

TLE

AggiornatoSource: Space-Track

Epoca: Sep 14, 2026, 02:01 UTC

1 59984U 76047E   26257.08451911  .00000808  00000-0  91341-3 0  9997
2 59984  99.8547 111.9106 0041106 101.1020 259.4753 13.73482004284387

Traccia P 76-5 DEB in tempo reale con AllMySat

Download on the App Store